Home > Weather > Heraklion > Past weeks

Flag for Greece Past Weather in Heraklion, Crete, Greece — Yesterday and Last 2 Weeks

Now
72 °F

Sunny.


Feels Like: 75 °F
Forecast: 65 / 77 °F
Wind: 7 mph from Southwest

Location: Heraklion Airport

Current Time: May 26, 2016 at 7:37:25 PM

Latest Report: May 26, 2016 at 6:50 PM


Visibility: 10 mi

Pressure: 29.86 "Hg

Humidity: 65%

Dew Point: 59 °F

Location of HeraklionLocation

Past Weather in Heraklion — Graph

°F

Heraklion Temperature Yesterday

Maximum temperature yesterday: 73 °F (at 10:50 AM)
Minimum temperature yesterday: 63 °F (at 3:50 AM)
Average temperature yesterday: 69 °F

High & Low Weather Summary for the Past Weeks

 TemperatureHumidityPressure
High95 °F (May 12, 12:50 PM)94% (May 15, 3:50 PM)30.04 "Hg (May 15, 3:50 PM)
Low55 °F (May 16, 5:50 AM)22% (May 12, 11:50 AM)29.65 "Hg (May 13, 5:50 AM)
Average70 °F66%29.89 "Hg
* Reported May 11 6:20 PM — May 26 6:20 PM, Heraklion, Weather by CustomWeather, © 2016

Note: Actual official high and low records may vary slightly from our data, if they occured in-between our weather recording intervals... More about our weather records

Advertising

Heraklion Weather History for the Previous 24 Hours

Scroll right to see more
 ConditionsComfort  
Time TempWeatherWind HumidityBarometerVisibility
6:20 PM
Thu, May 26
73 °FSunny.7 mph65%29.86 "Hg10 mi
5:50 PM73 °FSunny.9 mph65%29.86 "Hg10 mi
5:20 PM73 °FPassing clouds.13 mph61%29.86 "HgN/A
4:50 PM73 °FPassing clouds.13 mph61%29.86 "HgN/A
4:20 PM73 °FPassing clouds.12 mph61%29.86 "HgN/A
3:50 PM73 °FPassing clouds.12 mph61%29.86 "HgN/A
3:20 PM73 °FPassing clouds.12 mph57%29.86 "HgN/A
2:50 PM73 °FPassing clouds.12 mph57%29.86 "HgN/A
2:20 PM73 °FPassing clouds.14 mph61%29.86 "HgN/A
1:50 PM73 °FPassing clouds.16 mph61%29.86 "HgN/A
1:20 PM75 °FPassing clouds.16 mph57%29.86 "HgN/A
12:50 PM75 °FPassing clouds.16 mph57%29.86 "HgN/A
12:20 PM73 °FPassing clouds.14 mph57%29.86 "HgN/A
11:50 AM73 °FPassing clouds.15 mph57%29.86 "HgN/A
11:20 AM72 °FPassing clouds.16 mph61%29.86 "HgN/A
10:50 AM72 °FPassing clouds.15 mph61%29.86 "HgN/A
10:20 AM72 °FPassing clouds.14 mph57%29.83 "HgN/A
9:50 AM72 °FSunny.13 mph57%29.83 "Hg10 mi
9:20 AM70 °FSunny.13 mph60%29.83 "Hg10 mi
8:50 AM70 °FSunny.6 mph60%29.83 "Hg10 mi
8:20 AM68 °FSunny.6 mph56%29.80 "Hg10 mi
7:50 AM68 °FSunny.6 mph53%29.80 "Hg10 mi
7:20 AM61 °FSunny.7 mph68%29.80 "Hg10 mi
6:50 AM61 °FClear.6 mph68%29.80 "Hg10 mi
6:20 AM64 °FClear.5 mph68%29.80 "Hg10 mi
5:50 AM64 °FClear.7 mph68%29.80 "Hg10 mi
5:20 AM64 °FClear.7 mph64%29.80 "Hg10 mi
4:50 AM64 °FClear.7 mph64%29.80 "Hg10 mi
4:20 AM64 °FClear.7 mph64%29.80 "Hg10 mi
3:50 AM64 °FClear.7 mph64%29.80 "Hg10 mi
2:50 AM64 °FClear.5 mph64%29.80 "Hg10 mi
2:20 AM64 °FClear.No wind64%29.80 "Hg10 mi
1:50 AM64 °FClear.No wind64%29.80 "Hg10 mi
1:20 AM64 °FClear.No wind64%29.80 "Hg10 mi
12:50 AM64 °FClear.No wind64%29.80 "Hg10 mi
12:20 AM64 °FClear.No wind68%29.80 "Hg10 mi
11:50 PM
Wed, May 25
64 °FClear.No wind68%29.80 "Hg10 mi
11:20 PM66 °FClear.No wind64%29.80 "Hg10 mi
10:50 PM66 °FClear.5 mph64%29.80 "Hg10 mi
10:20 PM66 °FClear.7 mph64%29.80 "Hg10 mi
9:50 PM66 °FClear.13 mph64%29.80 "Hg10 mi
9:20 PM68 °FSunny.12 mph60%29.80 "Hg10 mi
8:50 PM68 °FSunny.15 mph60%29.80 "Hg10 mi
8:20 PM70 °FSunny.20 mph53%29.80 "Hg10 mi
7:50 PM70 °FSunny.17 mph53%29.80 "Hg10 mi
7:20 PM70 °FSunny.17 mph60%29.80 "Hg10 mi
Weather by CustomWeather, © 2016

See weather overviewHow to use our weather pages